sat.trackr.live / text

‹ back to catalog

UNKNOWN

NORAD 81667

UNKNOWN UNKNOWN UNKNOWN

§ Identity

Operator
Country
Launch date
Launch site
Launch vehicle
Mass (kg)
RCS (m²)

External: N2YO · Heavens-Above

§ Orbital elements

Epoch: 2026-05-23T03:14:47.420448Z

Period
99.39 min
Inclination
74.0381°
Eccentricity
0.0014398
Mean motion
14.48874704 rev/d
Perigee alt
719.1 km
Apogee alt
739.6 km
Semi-major
7,107.5 km
B*
4.2397e-4
RAAN
94.2946°
Arg perigee
341.2216°
Mean anomaly
18.8410°
Rev number
48,001

§ Raw data

UNKNOWN1 81667U          26143.13527107  .00001578  00000+0  42397-3 0  99982 81667  74.0381  94.2946 0014398 341.2216  18.8410 14.48874704480013

JSON: /api/v1/satellites/81667 · /tle

For live sub-satellite position, see the globe view (requires WebGL).

§ Visibility from observer

Set your observer location to see the next 7 days of passes ≥ 10°. The values pass through the URL so the page stays shareable.

No JS? Fill the form by hand. The geolocation button needs JavaScript.